| time (UTC) | temp F | wind direction | speed knots | gust knots | rain 1hr in | rain 24hr in | rain mn in | humidity % | barometer mb |
| 20260906110704 | 52 | 10 | 1.7 | 4.3 | 0.00 | 0.11 | 0.00 | 92 | 1017.3 |
| 20260906110204 | 52 | 11 | 1.7 | 2.6 | 0.00 | 0.11 | 0.00 | 92 | 1017.3 |
| 20260906104703 | 52 | 20 | 0.9 | 2.6 | 0.00 | 0.11 | 0.00 | 92 | 1017.1 |
| 20260906104204 | 52 | 20 | 1.7 | 2.6 | 0.00 | 0.11 | 0.00 | 92 | 1017.0 |
| 20260906102703 | 52 | 20 | 0.9 | 1.7 | 0.00 | 0.11 | 0.00 | 92 | 1016.8 |
| 20260906102203 | 52 | 20 | 1.7 | 2.6 | 0.00 | 0.11 | 0.00 | 92 | 1016.8 |
| 20260906100704 | 52 | 12 | 1.7 | 2.6 | 0.00 | 0.11 | 0.00 | 92 | 1016.7 |
| 20260906094703 | 52 | 19 | 0.9 | 2.6 | 0.00 | 0.11 | 0.00 | 91 | 1016.6 |
| 20260906094204 | 52 | 20 | 1.7 | 2.6 | 0.00 | 0.11 | 0.00 | 91 | 1016.6 |
| 20260906092704 | 53 | 28 | 1.7 | 2.6 | 0.00 | 0.11 | 0.00 | 91 | 1016.5 |
| 20260906092204 | 53 | 25 | 1.7 | 5.2 | 0.00 | 0.11 | 0.00 | 91 | 1016.4 |
| 20260906090703 | 52 | 46 | 1.7 | 4.3 | 0.00 | 0.11 | 0.00 | 91 | 1016.2 |
| 20260906090203 | 52 | 10 | 0.9 | 4.3 | 0.00 | 0.11 | 0.00 | 91 | 1016.2 |
| 20260906084204 | 53 | 50 | 1.7 | 6.1 | 0.00 | 0.11 | 0.00 | 90 | 1016.0 |
| 20260906082704 | 53 | 12 | 1.7 | 4.3 | 0.00 | 0.11 | 0.00 | 90 | 1016.0 |
| 20260906082204 | 53 | 12 | 2.6 | 6.1 | 0.00 | 0.11 | 0.00 | 89 | 1016.1 |
| 20260906080703 | 53 | 6 | 1.7 | 2.6 | 0.00 | 0.11 | 0.00 | 89 | 1016.0 |
| 20260906080204 | 53 | 0 | 3.5 | 6.1 | 0.00 | 0.11 | 0.00 | 89 | 1016.1 |
| 20260906074205 | 53 | 0 | 2.6 | 2.6 | 0.00 | 0.11 | 0.00 | 90 | 1016.1 |
| 20260906072706 | 53 | 28 | 1.7 | 2.6 | 0.00 | 0.11 | 0.00 | 90 | 1016.0 |
| 20260906072205 | 53 | 20 | 1.7 | 4.3 | 0.00 | 0.11 | 0.00 | 90 | 1015.9 |
| 20260906070205 | 53 | 11 | 2.6 | 4.3 | 0.00 | 0.11 | 0.00 | 91 | 1015.8 |
| 20260906064205 | 54 | 44 | 1.7 | 6.1 | 0.00 | 0.11 | 0.00 | 90 | 1015.7 |
| 20260906062705 | 54 | 37 | 1.7 | 2.6 | 0.00 | 0.11 | 0.00 | 90 | 1015.7 |
| 20260906062205 | 54 | 49 | 1.7 | 4.3 | 0.00 | 0.11 | 0.00 | 90 | 1015.7 |
| 20260906060705 | 54 | 44 | 1.7 | 6.1 | 0.00 | 0.11 | 0.00 | 91 | 1015.7 |
| 20260906060205 | 54 | 45 | 2.6 | 6.1 | 0.00 | 0.11 | 0.00 | 91 | 1015.6 |
| 20260906054706 | 54 | 36 | 2.6 | 4.3 | 0.00 | 0.11 | 0.00 | 91 | 1015.8 |
| 20260906054205 | 54 | 63 | 1.7 | 6.1 | 0.00 | 0.11 | 0.00 | 91 | 1015.8 |
| 20260906052705 | 54 | 47 | 1.7 | 6.1 | 0.00 | 0.11 | 0.00 | 90 | 1015.8 |
| 20260906052205 | 54 | 38 | 2.6 | 6.1 | 0.00 | 0.11 | 0.00 | 90 | 1015.8 |
| 20260906050705 | 55 | 53 | 1.7 | 4.3 | 0.00 | 0.11 | 0.00 | 90 | 1015.9 |
| 20260906050205 | 55 | 34 | 1.7 | 5.2 | 0.00 | 0.11 | 0.00 | 90 | 1015.8 |
| 20260906044705 | 55 | 38 | 1.7 | 4.3 | 0.00 | 0.11 | 0.00 | 90 | 1015.7 |
| 20260906044205 | 55 | 58 | 2.6 | 7.8 | 0.00 | 0.11 | 0.00 | 90 | 1015.7 |
| 20260906042705 | 55 | 49 | 2.6 | 6.1 | 0.00 | 0.11 | 0.00 | 89 | 1015.7 |
| 20260906040705 | 55 | 53 | 4.3 | 6.1 | 0.00 | 0.11 | 0.00 | 89 | 1015.6 |
| 20260906034205 | 55 | 63 | 4.3 | 10.4 | 0.00 | 0.11 | 0.11 | 89 | 1015.4 |
| 20260906032704 | 55 | 68 | 4.3 | 11.3 | 0.00 | 0.11 | 0.11 | 89 | 1015.4 |
| 20260906032205 | 55 | 51 | 4.3 | 7.8 | 0.00 | 0.11 | 0.11 | 89 | 1015.4 |
| 20260906030205 | 55 | 20 | 1.7 | 6.1 | 0.00 | 0.11 | 0.11 | 89 | 1015.4 |
| 20260906024705 | 55 | 52 | 2.6 | 7.0 | 0.00 | 0.11 | 0.11 | 90 | 1015.5 |
| 20260906022705 | 55 | 19 | 1.7 | 2.6 | 0.01 | 0.11 | 0.11 | 91 | 1015.7 |
| 20260906022205 | 55 | 19 | 1.7 | 2.6 | 0.01 | 0.11 | 0.11 | 91 | 1015.6 |
| 20260906020705 | 55 | 10 | 1.7 | 2.6 | 0.02 | 0.11 | 0.11 | 91 | 1015.6 |
| 20260906020205 | 55 | 7 | 1.7 | 2.6 | 0.03 | 0.11 | 0.11 | 91 | 1015.7 |
| 20260906014705 | 55 | 18 | 1.7 | 5.2 | 0.06 | 0.11 | 0.11 | 90 | 1015.8 |
| 20260906014205 | 55 | 40 | 2.6 | 7.0 | 0.08 | 0.11 | 0.11 | 90 | 1015.5 |
| 20260906012705 | 55 | 56 | 5.2 | 12.2 | 0.10 | 0.10 | 0.10 | 90 | 1015.1 |
| 20260906012204 | 55 | 68 | 4.3 | 12.2 | 0.10 | 0.10 | 0.10 | 90 | 1014.8 |
| 20260906010205 | 56 | 91 | 5.2 | 13.0 | 0.08 | 0.08 | 0.08 | 88 | 1015.3 |
| 20260906004206 | 57 | 76 | 2.6 | 7.0 | 0.03 | 0.03 | 0.03 | 88 | 1015.9 |
| 20260906002705 | 59 | 17 | 2.6 | 4.3 | 0.00 | 0.00 | 0.00 | 85 | 1016.0 |
| 20260906002205 | 59 | 14 | 2.6 | 7.8 | 0.00 | 0.00 | 0.00 | 83 | 1015.9 |
| 20260906000705 | 61 | 7 | 4.3 | 10.4 | 0.00 | 0.00 | 0.00 | 76 | 1015.6 |
| 20260906000205 | 62 | 17 | 3.5 | 7.8 | 0.00 | 0.00 | 0.00 | 74 | 1015.5 |
| 20260905234705 | 62 | 7 | 5.2 | 11.3 | 0.00 | 0.00 | 0.00 | 72 | 1015.4 |
| 20260905234205 | 62 | 50 | 2.6 | 11.3 | 0.00 | 0.00 | 0.00 | 71 | 1015.3 |
| 20260905232705 | 63 | 25 | 5.2 | 8.7 | 0.00 | 0.00 | 0.00 | 68 | 1015.0 |
| 20260905232205 | 63 | 29 | 4.3 | 10.4 | 0.00 | 0.00 | 0.00 | 68 | 1014.9 |
| 20260905230705 | 64 | 29 | 2.6 | 8.7 | 0.00 | 0.00 | 0.00 | 71 | 1014.4 |
| 20260905230205 | 64 | 39 | 5.2 | 13.0 | 0.00 | 0.00 | 0.00 | 70 | 1014.5 |
| 20260905224704 | 65 | 71 | 4.3 | 10.4 | 0.00 | 0.00 | 0.00 | 70 | 1014.4 |
| 20260905224204 | 65 | 66 | 3.5 | 8.7 | 0.00 | 0.00 | 0.00 | 70 | 1014.4 |
| 20260905222705 | 65 | 81 | 2.6 | 7.0 | 0.00 | 0.00 | 0.00 | 69 | 1014.3 |
| 20260905222204 | 65 | 43 | 4.3 | 8.7 | 0.00 | 0.00 | 0.00 | 68 | 1014.2 |
| 20260905220704 | 66 | 46 | 5.2 | 10.4 | 0.00 | 0.00 | 0.00 | 67 | 1014.0 |
| 20260905220205 | 66 | 44 | 3.5 | 10.4 | 0.00 | 0.00 | 0.00 | 67 | 1014.0 |
| 20260905214704 | 67 | 31 | 2.6 | 10.4 | 0.00 | 0.00 | 0.00 | 70 | 1013.6 |
| 20260905214204 | 67 | 50 | 5.2 | 13.0 | 0.00 | 0.00 | 0.00 | 70 | 1013.5 |
| 20260905212704 | 67 | 34 | 4.3 | 8.7 | 0.00 | 0.00 | 0.00 | 69 | 1013.3 |
| 20260905212205 | 68 | 57 | 2.6 | 10.4 | 0.00 | 0.00 | 0.00 | 69 | 1013.3 |
| 20260905210704 | 68 | 50 | 4.3 | 8.7 | 0.00 | 0.00 | 0.00 | 68 | 1013.0 |
| 20260905210204 | 68 | 46 | 4.3 | 11.3 | 0.00 | 0.00 | 0.00 | 69 | 1013.0 |
| 20260905204705 | 68 | 61 | 3.5 | 8.7 | 0.00 | 0.00 | 0.00 | 68 | 1013.0 |
| 20260905204205 | 69 | 61 | 7.8 | 13.0 | 0.00 | 0.00 | 0.00 | 66 | 1013.0 |
| 20260905202704 | 68 | 51 | 4.3 | 8.7 | 0.00 | 0.00 | 0.00 | 65 | 1012.8 |
| 20260905202204 | 68 | 60 | 3.5 | 10.4 | 0.00 | 0.00 | 0.00 | 66 | 1012.8 |
| 20260905200705 | 70 | 57 | 3.5 | 10.4 | 0.00 | 0.00 | 0.00 | 64 | 1012.7 |
| 20260905200204 | 70 | 18 | 3.5 | 10.4 | 0.00 | 0.00 | 0.00 | 63 | 1012.7 |
| 20260905194704 | 69 | 41 | 4.3 | 7.0 | 0.00 | 0.00 | 0.00 | 65 | 1012.6 |
| 20260905192705 | 70 | 58 | 5.2 | 10.4 | 0.00 | 0.00 | 0.00 | 63 | 1012.6 |
| 20260905192204 | 70 | 61 | 4.3 | 11.3 | 0.00 | 0.00 | 0.00 | 63 | 1012.7 |
| 20260905190705 | 69 | 58 | 4.3 | 8.7 | 0.00 | 0.00 | 0.00 | 65 | 1012.6 |
| 20260905190205 | 69 | 31 | 6.1 | 11.3 | 0.00 | 0.00 | 0.00 | 62 | 1012.7 |
| 20260905182206 | 68 | 11 | 3.5 | 10.4 | 0.00 | 0.00 | 0.00 | 72 | 1012.7 |
| 20260905180705 | 68 | 21 | 5.2 | 10.4 | 0.00 | 0.00 | 0.00 | 71 | 1012.8 |
| 20260905180204 | 68 | 72 | 2.6 | 11.3 | 0.00 | 0.00 | 0.00 | 72 | 1012.8 |
| 20260905174705 | 68 | 28 | 2.6 | 8.7 | 0.00 | 0.00 | 0.00 | 70 | 1012.8 |
| 20260905174205 | 68 | 26 | 5.2 | 10.4 | 0.00 | 0.00 | 0.00 | 73 | 1012.8 |
| 20260905172705 | 68 | 14 | 3.5 | 6.1 | 0.00 | 0.00 | 0.00 | 74 | 1012.7 |
| 20260905172204 | 67 | 37 | 4.3 | 10.4 | 0.00 | 0.00 | 0.00 | 76 | 1012.7 |
| 20260905170705 | 65 | 60 | 2.6 | 7.8 | 0.00 | 0.00 | 0.00 | 80 | 1012.9 |
| 20260905170204 | 64 | 39 | 3.5 | 11.3 | 0.00 | 0.00 | 0.00 | 80 | 1012.9 |
| 20260905164705 | 65 | 74 | 4.3 | 7.8 | 0.00 | 0.00 | 0.00 | 80 | 1013.0 |
| 20260905164204 | 64 | 20 | 3.5 | 7.8 | 0.00 | 0.00 | 0.00 | 80 | 1013.0 |
| 20260905162205 | 64 | 5 | 2.6 | 8.7 | 0.00 | 0.00 | 0.00 | 81 | 1013.0 |
| 20260905160704 | 64 | 54 | 1.7 | 5.2 | 0.00 | 0.00 | 0.00 | 82 | 1013.0 |
| 20260905160204 | 64 | 10 | 2.6 | 7.8 | 0.00 | 0.00 | 0.00 | 82 | 1013.0 |
| 20260905154704 | 64 | 66 | 2.6 | 7.8 | 0.00 | 0.00 | 0.00 | 81 | 1013.0 |
| 20260905154204 | 64 | 33 | 5.2 | 10.4 | 0.00 | 0.00 | 0.00 | 82 | 1012.9 |
| 20260905152704 | 64 | 59 | 3.5 | 11.3 | 0.00 | 0.00 | 0.00 | 83 | 1012.9 |
| 20260905152204 | 63 | 53 | 2.6 | 7.8 | 0.00 | 0.00 | 0.00 | 84 | 1012.9 |
| 20260905150704 | 63 | 75 | 2.6 | 7.0 | 0.00 | 0.00 | 0.00 | 84 | 1013.1 |
| 20260905150205 | 63 | 59 | 4.3 | 10.4 | 0.00 | 0.00 | 0.00 | 84 | 1013.0 |
| 20260905144704 | 63 | 29 | 4.3 | 7.8 | 0.00 | 0.00 | 0.00 | 82 | 1012.9 |
| 20260905144204 | 63 | 35 | 4.3 | 8.7 | 0.00 | 0.00 | 0.00 | 82 | 1012.9 |
| 20260905142704 | 63 | 59 | 2.6 | 7.0 | 0.00 | 0.00 | 0.00 | 83 | 1012.7 |
| 20260905140704 | 63 | 83 | 4.3 | 10.4 | 0.00 | 0.00 | 0.00 | 84 | 1012.6 |
| 20260905134705 | 63 | 12 | 3.5 | 7.0 | 0.00 | 0.00 | 0.00 | 85 | 1012.4 |
| 20260905134204 | 62 | 12 | 3.5 | 10.4 | 0.00 | 0.00 | 0.00 | 85 | 1012.3 |
| 20260905130704 | 62 | 50 | 2.6 | 7.8 | 0.00 | 0.00 | 0.00 | 88 | 1012.2 |
| 20260905130204 | 62 | 68 | 3.5 | 7.8 | 0.00 | 0.00 | 0.00 | 88 | 1012.1 |
| 20260905124204 | 61 | 21 | 2.6 | 7.8 | 0.00 | 0.00 | 0.00 | 90 | 1011.9 |
| 20260905122204 | 60 | 14 | 1.7 | 5.2 | 0.00 | 0.00 | 0.00 | 91 | 1012.0 |
| 20260905120704 | 60 | 0 | 2.6 | 5.2 | 0.00 | 0.00 | 0.00 | 91 | 1012.0 |
| 20260905120204 | 60 | 11 | 2.6 | 5.2 | 0.00 | 0.00 | 0.00 | 91 | 1011.9 |
| 20260905114703 | 60 | 5 | 1.7 | 2.6 | 0.00 | 0.00 | 0.00 | 91 | 1011.8 |
| 20260905114204 | 60 | 19 | 2.6 | 6.1 | 0.00 | 0.00 | 0.00 | 91 | 1011.8 |
| 20260905112704 | 59 | 11 | 2.6 | 5.2 | 0.00 | 0.00 | 0.00 | 92 | 1011.7 |